Weather History for Santee, CA

Change the Weather History Date:

Saturday, January 19, 2013

  Actual Average Record
Temperature  
Mean Temperature 58 °F -  
Max Temperature 84 °F 70 °F 84 °F (2000)
Min Temperature 33 °F 41 °F 32 °F (2002)
Degree Days  
Heating Degree Days 6    
Growing Degree Days 8 (Base 50)    
Moisture  
Dew Point 31 °F    
Average Humidity 63    
Maximum Humidity 87    
Minimum Humidity 12    
Precipitation  
Precipitation 0.00 in - - ()
Sea Level Pressure  
Sea Level Pressure 30.14 in    
Wind  
Wind Speed 0 mph (WNW)    
Max Wind Speed 4 mph    
Max Gust Speed -    
Visibility 10 miles    
Events      
Averages and records for this station are not official NWS values.
T = Trace of Precipitation, MM = Missing Value Source: NWS Daily Summary

Daily Weather History Graph

Daily Weather History Graph

Search for Another Location

Airport:

Trip Planner

Search our weather history database for the weather conditions in past years. The results will help you decide how hot, cold, wet, or windy it might be!

Date:

Astronomy

Jan. 19, 2013 Rise Set
Actual Time 6:49 AM PST 5:08 PM PST
Civil Twilight 6:22 AM PST 5:35 PM PST
Nautical Twilight 5:52 AM PST 6:05 PM PST
Astronomical Twilight 5:23 AM PST 6:34 PM PST
Moon 11:33 AM PST (1/19) 12:32 AM PST (1/19)
Length of Visible Light 11h 12m
Length of Day
10h 19m
First Quarter, 58% of the Moon is Illuminated
Jan 19
First Quarter
Jan 26
Full
Feb 3
Last Quarter
Feb 9
New
Feb 17
First Quarter

Hourly Weather History & Observations

Time (PST) Temp. Dew Point Humidity Pressure Visibility Wind Dir Wind Speed Gust Speed Precip Events Conditions
12:15 AM 41.0 °F 32.0 °F 70% 30.12 in 10.0 mi Calm Calm - N/A   Clear
12:35 AM 39.2 °F 32.0 °F 75% 30.12 in 10.0 mi Calm Calm - N/A   Clear
12:55 AM 39.2 °F 32.0 °F 75% 30.11 in 10.0 mi Calm Calm - N/A   Clear
1:15 AM 39.2 °F 32.0 °F 75% 30.12 in 10.0 mi Calm Calm - N/A   Clear
1:35 AM 39.2 °F 30.2 °F 70% 30.12 in 10.0 mi Calm Calm - N/A   Clear
1:55 AM 37.4 °F 32.0 °F 81% 30.12 in 10.0 mi Calm Calm - N/A   Clear
2:15 AM 37.4 °F 30.2 °F 75% 30.12 in 10.0 mi Calm Calm - N/A   Clear
2:35 AM 37.4 °F 30.2 °F 75% 30.12 in 10.0 mi Calm Calm - N/A   Clear
2:55 AM 37.4 °F 30.2 °F 75% 30.12 in 10.0 mi Calm Calm - N/A   Clear
3:15 AM 37.4 °F 30.2 °F 75% 30.12 in 10.0 mi Calm Calm - N/A   Clear
3:35 AM 37.4 °F 30.2 °F 75% 30.13 in 10.0 mi Calm Calm - N/A   Clear
4:55 AM 35.6 °F 30.2 °F 81% 30.14 in 10.0 mi Calm Calm - N/A   Clear
5:15 AM 35.6 °F 30.2 °F 81% 30.14 in 10.0 mi Calm Calm - N/A   Clear
6:47 AM 33.8 °F 30.2 °F 87% 30.16 in 20.0 mi Calm Calm - N/A   Partly Cloudy
7:47 AM 37.4 °F 32.0 °F 81% 30.18 in 25.0 mi Calm Calm - N/A   Partly Cloudy
8:52 AM 46.4 °F 32.0 °F 57% 30.20 in 25.0 mi Calm Calm - N/A   Partly Cloudy
11:47 AM 84.2 °F 26.6 °F 12% 30.14 in 25.0 mi Calm Calm - N/A   Partly Cloudy
8:15 PM 51.8 °F 32.0 °F 47% 30.14 in 10.0 mi Calm Calm - N/A   Clear
8:35 PM 51.8 °F 30.2 °F 44% 30.14 in 10.0 mi Calm Calm - N/A   Clear
8:55 PM 50.0 °F 32.0 °F 50% 30.14 in 10.0 mi WNW 3.5 mph - N/A   Clear
9:15 PM 48.2 °F 32.0 °F 54% 30.15 in 10.0 mi Calm Calm - N/A   Clear
9:35 PM 48.2 °F 30.2 °F 50% 30.15 in 10.0 mi Calm Calm - N/A   Clear
9:55 PM 46.4 °F 30.2 °F 53% 30.15 in 10.0 mi Calm Calm - N/A   Clear
10:15 PM 46.4 °F 30.2 °F 53% 30.16 in 10.0 mi Calm Calm - N/A   Clear
10:35 PM 46.4 °F 30.2 °F 53% 30.16 in 10.0 mi Calm Calm - N/A   Clear
10:55 PM 44.6 °F 28.4 °F 53% 30.16 in 10.0 mi Calm Calm - N/A   Clear
11:15 PM 44.6 °F 30.2 °F 57% 30.16 in 10.0 mi Calm Calm - N/A   Clear
11:35 PM 44.6 °F 28.4 °F 53% 30.16 in 10.0 mi Calm Calm - N/A   Clear
11:55 PM 44.6 °F 28.4 °F 53% 30.15 in 10.0 mi Calm Calm - N/A   Clear